Location: LDNL
(36.4545°S, 141.6685°E)
Time: 11:06:52
(UTC+10:00)

Vanguard 1 - Pass Details

Date: 14 August 2022
Orbit: 649 x 3832 km, 34.2° (Epoch: 30 September)

Event Time Altitude Azimuth Distance (km) Brightness Sun altitude
Rises 18:39:00 0° 271° (W) 4,129 15.4 -8.6°
Reaches altitude 10° 18:42:20 10° 273° (W) 2,792 14.0 -9.3°
Maximum altitude 18:48:24 70° 355° (N) 793 9.6 -10.5°
Enters shadow 18:52:21 13° 78° (ENE) 1,864 10.9 -11.3°
